Year,Month,Day,Hour,Minute,Value (Times are PST for temperature in C)
2014,07,17,00,00,16.10
2014,07,17,00,01,16.10
2014,07,17,00,02,16.10
2014,07,17,00,03,16.10
2014,07,17,00,04,16.10
2014,07,17,00,05,16.00
2014,07,17,00,06,15.90
2014,07,17,00,07,15.80
2014,07,17,00,08,15.70
2014,07,17,00,09,15.70
2014,07,17,00,10,15.60
2014,07,17,00,11,15.50
2014,07,17,00,12,15.40
2014,07,17,00,13,15.40
2014,07,17,00,14,15.30
2014,07,17,00,15,15.30
2014,07,17,00,16,15.30
2014,07,17,00,17,15.20
2014,07,17,00,18,15.10
2014,07,17,00,19,15.10
2014,07,17,00,20,15.00
2014,07,17,00,21,14.90
2014,07,17,00,22,14.80
2014,07,17,00,23,14.70
2014,07,17,00,24,14.70
2014,07,17,00,25,14.60
2014,07,17,00,26,14.60
2014,07,17,00,27,14.60
2014,07,17,00,28,14.60
2014,07,17,00,29,14.60
2014,07,17,00,30,14.60
2014,07,17,00,31,14.60
2014,07,17,00,32,14.70
2014,07,17,00,33,14.70
2014,07,17,00,34,14.70
2014,07,17,00,35,14.80
2014,07,17,00,36,14.90
2014,07,17,00,37,15.00
2014,07,17,00,38,15.00
2014,07,17,00,39,15.10
2014,07,17,00,40,15.20
2014,07,17,00,41,15.30
2014,07,17,00,42,15.30
2014,07,17,00,43,15.40
2014,07,17,00,44,15.40
2014,07,17,00,45,15.50
2014,07,17,00,46,15.50
2014,07,17,00,47,15.60
2014,07,17,00,48,15.60
2014,07,17,00,49,15.70
2014,07,17,00,50,15.70
2014,07,17,00,51,15.80
2014,07,17,00,52,15.80
2014,07,17,00,53,15.80
2014,07,17,00,54,15.80
2014,07,17,00,55,15.80
2014,07,17,00,56,15.80
2014,07,17,00,57,15.80
2014,07,17,00,58,15.80
2014,07,17,00,59,15.80
2014,07,17,01,00,15.80
2014,07,17,01,01,15.80
2014,07,17,01,02,15.80
2014,07,17,01,03,15.80
2014,07,17,01,04,15.80
2014,07,17,01,05,15.80
2014,07,17,01,06,15.80
2014,07,17,01,07,15.80
2014,07,17,01,08,15.80
2014,07,17,01,09,15.80
2014,07,17,01,10,15.80
2014,07,17,01,11,15.70
2014,07,17,01,12,15.70
2014,07,17,01,13,15.70
2014,07,17,01,14,15.70
2014,07,17,01,15,15.70
2014,07,17,01,16,15.70
2014,07,17,01,17,15.60
2014,07,17,01,18,15.60
2014,07,17,01,19,15.60
2014,07,17,01,20,15.60
2014,07,17,01,21,15.50
2014,07,17,01,22,15.50
2014,07,17,01,23,15.40
2014,07,17,01,24,15.30
2014,07,17,01,25,15.20
2014,07,17,01,26,15.10
2014,07,17,01,27,15.00
2014,07,17,01,28,14.80
2014,07,17,01,29,14.60
2014,07,17,01,30,14.40
2014,07,17,01,31,14.20
2014,07,17,01,32,14.00
2014,07,17,01,33,13.80
2014,07,17,01,34,13.70
2014,07,17,01,35,13.60
2014,07,17,01,36,13.40
2014,07,17,01,37,13.30
2014,07,17,01,38,13.20
2014,07,17,01,39,13.10
2014,07,17,01,40,13.00
2014,07,17,01,41,13.00
2014,07,17,01,42,12.90
2014,07,17,01,43,12.90
2014,07,17,01,44,12.90
2014,07,17,01,45,12.90
2014,07,17,01,46,12.90
2014,07,17,01,47,12.90
2014,07,17,01,48,12.90
2014,07,17,01,49,12.90
2014,07,17,01,50,13.00
2014,07,17,01,51,13.00
2014,07,17,01,52,13.10
2014,07,17,01,53,13.10
2014,07,17,01,54,13.20
2014,07,17,01,55,13.20
2014,07,17,01,56,13.30
2014,07,17,01,57,13.30
2014,07,17,01,58,13.30
2014,07,17,01,59,13.40
2014,07,17,02,00,13.40
2014,07,17,02,01,13.40
2014,07,17,02,02,13.50
2014,07,17,02,03,13.50
2014,07,17,02,04,13.50
2014,07,17,02,05,13.50
2014,07,17,02,06,13.60
2014,07,17,02,07,13.60
2014,07,17,02,08,13.60
2014,07,17,02,09,13.60
2014,07,17,02,10,13.50
2014,07,17,02,11,13.50
2014,07,17,02,12,13.40
2014,07,17,02,13,13.40
2014,07,17,02,14,13.30
2014,07,17,02,15,13.30
2014,07,17,02,16,13.30
2014,07,17,02,17,13.30
2014,07,17,02,18,13.30
2014,07,17,02,19,13.30
2014,07,17,02,20,13.30
2014,07,17,02,21,13.30
2014,07,17,02,22,13.30
2014,07,17,02,23,13.30
2014,07,17,02,24,13.30
2014,07,17,02,25,13.30
2014,07,17,02,26,13.40
2014,07,17,02,27,13.40
2014,07,17,02,28,13.40
2014,07,17,02,29,13.40
2014,07,17,02,30,13.40
2014,07,17,02,31,13.40
2014,07,17,02,32,13.40
2014,07,17,02,33,13.40
2014,07,17,02,34,13.40
2014,07,17,02,35,13.40
2014,07,17,02,36,13.40
2014,07,17,02,37,13.40
2014,07,17,02,38,13.40
2014,07,17,02,39,13.40
2014,07,17,02,40,13.40
2014,07,17,02,41,13.40
2014,07,17,02,42,13.30
2014,07,17,02,43,13.30
2014,07,17,02,44,13.30
2014,07,17,02,45,13.30
2014,07,17,02,46,13.30
2014,07,17,02,47,13.30
2014,07,17,02,48,13.20
2014,07,17,02,49,13.20
2014,07,17,02,50,13.20
2014,07,17,02,51,13.20
2014,07,17,02,52,13.10
2014,07,17,02,53,13.10
2014,07,17,02,54,13.00
2014,07,17,02,55,13.00
2014,07,17,02,56,12.90
2014,07,17,02,57,12.90
2014,07,17,02,58,12.80
2014,07,17,02,59,12.80
2014,07,17,03,00,12.70
2014,07,17,03,01,12.70
2014,07,17,03,02,12.70
2014,07,17,03,03,12.60
2014,07,17,03,04,12.60
2014,07,17,03,05,12.60
2014,07,17,03,06,12.60
2014,07,17,03,07,12.60
2014,07,17,03,08,12.60
2014,07,17,03,09,12.60
2014,07,17,03,10,12.60
2014,07,17,03,11,12.60
2014,07,17,03,12,12.60
2014,07,17,03,13,12.60
2014,07,17,03,14,12.60
2014,07,17,03,15,12.60
2014,07,17,03,16,12.60
2014,07,17,03,17,12.60
2014,07,17,03,18,12.60
2014,07,17,03,19,12.60
2014,07,17,03,20,12.50
2014,07,17,03,21,12.50
2014,07,17,03,22,12.50
2014,07,17,03,23,12.50
2014,07,17,03,24,12.40
2014,07,17,03,25,12.30
2014,07,17,03,26,12.30
2014,07,17,03,27,12.30
2014,07,17,03,28,12.30
2014,07,17,03,29,12.30
2014,07,17,03,30,12.30
2014,07,17,03,31,12.30
2014,07,17,03,32,12.30
2014,07,17,03,33,12.30
2014,07,17,03,34,12.30
2014,07,17,03,35,12.30
2014,07,17,03,36,12.30
2014,07,17,03,37,12.30
2014,07,17,03,38,12.30
2014,07,17,03,39,12.30
2014,07,17,03,40,12.30
2014,07,17,03,41,12.20
2014,07,17,03,42,12.20
2014,07,17,03,43,12.20
2014,07,17,03,44,12.10
2014,07,17,03,45,12.10
2014,07,17,03,46,12.10
2014,07,17,03,47,12.10
2014,07,17,03,48,12.10
2014,07,17,03,49,12.10
2014,07,17,03,50,12.10
2014,07,17,03,51,12.10
2014,07,17,03,52,12.10
2014,07,17,03,53,12.10
2014,07,17,03,54,12.20
2014,07,17,03,55,12.20
2014,07,17,03,56,12.20
2014,07,17,03,57,12.20
2014,07,17,03,58,12.20
2014,07,17,03,59,12.20
2014,07,17,04,00,12.30
2014,07,17,04,01,12.30
2014,07,17,04,02,12.30
2014,07,17,04,03,12.30
2014,07,17,04,04,12.30
2014,07,17,04,05,12.30
2014,07,17,04,06,12.30
2014,07,17,04,07,12.30
2014,07,17,04,08,12.30
2014,07,17,04,09,12.30
2014,07,17,04,10,12.30
2014,07,17,04,11,12.30
2014,07,17,04,12,12.30
2014,07,17,04,13,12.30
2014,07,17,04,14,12.30
2014,07,17,04,15,12.30
2014,07,17,04,16,12.30
2014,07,17,04,17,12.30
2014,07,17,04,18,12.30
2014,07,17,04,19,12.30
2014,07,17,04,20,12.30
2014,07,17,04,21,12.30
2014,07,17,04,22,12.30
2014,07,17,04,23,12.30
2014,07,17,04,24,12.30
2014,07,17,04,25,12.30
2014,07,17,04,26,12.30
2014,07,17,04,27,12.30
2014,07,17,04,28,12.30
2014,07,17,04,29,12.40
2014,07,17,04,30,12.40
2014,07,17,04,31,12.50
2014,07,17,04,32,12.50
2014,07,17,04,33,12.60
2014,07,17,04,34,12.70
2014,07,17,04,35,12.70
2014,07,17,04,36,12.80
2014,07,17,04,37,12.80
2014,07,17,04,38,12.80
2014,07,17,04,39,12.80
2014,07,17,04,40,12.80
2014,07,17,04,41,12.70
2014,07,17,04,42,12.60
2014,07,17,04,43,12.50
2014,07,17,04,44,12.50
2014,07,17,04,45,12.40
2014,07,17,04,46,12.30
2014,07,17,04,47,12.20
2014,07,17,04,48,12.20
2014,07,17,04,49,12.10
2014,07,17,04,50,12.00
2014,07,17,04,51,12.00
2014,07,17,04,52,11.90
2014,07,17,04,53,11.80
2014,07,17,04,54,11.80
2014,07,17,04,55,11.70
2014,07,17,04,56,11.60
2014,07,17,04,57,11.50
2014,07,17,04,58,11.40
2014,07,17,04,59,11.30
2014,07,17,05,00,11.20
2014,07,17,05,01,11.20
2014,07,17,05,02,11.10
2014,07,17,05,03,11.00
2014,07,17,05,04,10.90
2014,07,17,05,05,10.80
2014,07,17,05,06,10.70
2014,07,17,05,07,10.60
2014,07,17,05,08,10.60
2014,07,17,05,09,10.50
2014,07,17,05,10,10.50
2014,07,17,05,11,10.40
2014,07,17,05,12,10.40
2014,07,17,05,13,10.40
2014,07,17,05,14,10.30
2014,07,17,05,15,10.30
2014,07,17,05,16,10.30
2014,07,17,05,17,10.30
2014,07,17,05,18,10.30
2014,07,17,05,19,10.30
2014,07,17,05,20,10.30
2014,07,17,05,21,10.30
2014,07,17,05,22,10.40
2014,07,17,05,23,10.40
2014,07,17,05,24,10.40
2014,07,17,05,25,10.40
2014,07,17,05,26,10.50
2014,07,17,05,27,10.50
2014,07,17,05,28,10.50
2014,07,17,05,29,10.50
2014,07,17,05,30,10.50
2014,07,17,05,31,10.60
2014,07,17,05,32,10.60
2014,07,17,05,33,10.60
2014,07,17,05,34,10.60
2014,07,17,05,35,10.60
2014,07,17,05,36,10.60
2014,07,17,05,37,10.60
2014,07,17,05,38,10.60
2014,07,17,05,39,10.60
2014,07,17,05,40,10.50
2014,07,17,05,41,10.60
2014,07,17,05,42,10.60
2014,07,17,05,43,10.60
2014,07,17,05,44,10.70
2014,07,17,05,45,10.80
2014,07,17,05,46,10.80
2014,07,17,05,47,10.80
2014,07,17,05,48,10.80
2014,07,17,05,49,10.80
2014,07,17,05,50,10.70
2014,07,17,05,51,10.70
2014,07,17,05,52,10.70
2014,07,17,05,53,10.60
2014,07,17,05,54,10.60
2014,07,17,05,55,10.60
2014,07,17,05,56,10.50
2014,07,17,05,57,10.50
2014,07,17,05,58,10.40
2014,07,17,05,59,10.40
2014,07,17,06,00,10.40
2014,07,17,06,01,10.30
2014,07,17,06,02,10.30
2014,07,17,06,03,10.30
2014,07,17,06,04,10.30
2014,07,17,06,05,10.30
2014,07,17,06,06,10.20
2014,07,17,06,07,10.20
2014,07,17,06,08,10.20
2014,07,17,06,09,10.20
2014,07,17,06,10,10.20
2014,07,17,06,11,10.20
2014,07,17,06,12,10.20
2014,07,17,06,13,10.30
2014,07,17,06,14,10.30
2014,07,17,06,15,10.30
2014,07,17,06,16,10.20
2014,07,17,06,17,10.20
2014,07,17,06,18,10.10
2014,07,17,06,19,10.10
2014,07,17,06,20,10.10
2014,07,17,06,21,10.10
2014,07,17,06,22,10.20
2014,07,17,06,23,10.20
2014,07,17,06,24,10.20
2014,07,17,06,25,10.30
2014,07,17,06,26,10.30
2014,07,17,06,27,10.40
2014,07,17,06,28,10.40
2014,07,17,06,29,10.50
2014,07,17,06,30,10.60
2014,07,17,06,31,10.70
2014,07,17,06,32,10.70
2014,07,17,06,33,10.80
2014,07,17,06,34,10.90
2014,07,17,06,35,11.00
2014,07,17,06,36,11.20
2014,07,17,06,37,11.30
2014,07,17,06,38,11.30
2014,07,17,06,39,11.50
2014,07,17,06,40,11.50
2014,07,17,06,41,11.60
2014,07,17,06,42,11.70
2014,07,17,06,43,11.70
2014,07,17,06,44,11.70
2014,07,17,06,45,11.70
2014,07,17,06,46,11.70
2014,07,17,06,47,11.70
2014,07,17,06,48,11.70
2014,07,17,06,49,11.70
2014,07,17,06,50,11.70
2014,07,17,06,51,11.70
2014,07,17,06,52,11.70
2014,07,17,06,53,11.80
2014,07,17,06,54,11.80
2014,07,17,06,55,11.90
2014,07,17,06,56,11.90
2014,07,17,06,57,12.00
2014,07,17,06,58,12.10
2014,07,17,06,59,12.20
2014,07,17,07,00,12.30
2014,07,17,07,01,12.40
2014,07,17,07,02,12.40
2014,07,17,07,03,12.50
2014,07,17,07,04,12.60
2014,07,17,07,05,12.70
2014,07,17,07,06,12.70
2014,07,17,07,07,12.80
2014,07,17,07,08,12.80
2014,07,17,07,09,12.90
2014,07,17,07,10,13.00
2014,07,17,07,11,13.10
2014,07,17,07,12,13.10
2014,07,17,07,13,13.20
2014,07,17,07,14,13.30
2014,07,17,07,15,13.30
2014,07,17,07,16,13.40
2014,07,17,07,17,13.50
2014,07,17,07,18,13.50
2014,07,17,07,19,13.60
2014,07,17,07,20,13.60
2014,07,17,07,21,13.70
2014,07,17,07,22,13.80
2014,07,17,07,23,13.80
2014,07,17,07,24,13.90
2014,07,17,07,25,14.00
2014,07,17,07,26,14.10
2014,07,17,07,27,14.10
2014,07,17,07,28,14.20
2014,07,17,07,29,14.20
2014,07,17,07,30,14.30
2014,07,17,07,31,14.30
2014,07,17,07,32,14.30
2014,07,17,07,33,14.40
2014,07,17,07,34,14.50
2014,07,17,07,35,14.60
2014,07,17,07,36,14.60
2014,07,17,07,37,14.70
2014,07,17,07,38,14.80
2014,07,17,07,39,14.90
2014,07,17,07,40,14.90
2014,07,17,07,41,15.00
2014,07,17,07,42,15.10
2014,07,17,07,43,15.10
2014,07,17,07,44,15.10
2014,07,17,07,45,15.20
2014,07,17,07,46,15.20
2014,07,17,07,47,15.20
2014,07,17,07,48,15.20
2014,07,17,07,49,15.20
2014,07,17,07,50,15.30
2014,07,17,07,51,15.30
2014,07,17,07,52,15.30
2014,07,17,07,53,15.30
2014,07,17,07,54,15.30
2014,07,17,07,55,15.40
2014,07,17,07,56,15.30
2014,07,17,07,57,15.40
2014,07,17,07,58,15.30
2014,07,17,07,59,15.30
2014,07,17,08,00,15.30
2014,07,17,08,01,15.30
2014,07,17,08,02,15.20
2014,07,17,08,03,15.20
2014,07,17,08,04,15.20
2014,07,17,08,05,15.20
2014,07,17,08,06,15.10
2014,07,17,08,07,15.10
2014,07,17,08,08,15.10
2014,07,17,08,09,15.10
2014,07,17,08,10,15.00
2014,07,17,08,11,15.00
2014,07,17,08,12,15.00
2014,07,17,08,13,15.00
2014,07,17,08,14,15.00
2014,07,17,08,15,15.00
2014,07,17,08,16,15.00
2014,07,17,08,17,15.00
2014,07,17,08,18,15.10
2014,07,17,08,19,15.20
2014,07,17,08,20,15.20
2014,07,17,08,21,15.20
2014,07,17,08,22,15.20
2014,07,17,08,23,15.30
2014,07,17,08,24,15.30
2014,07,17,08,25,15.30
2014,07,17,08,26,15.30
2014,07,17,08,27,15.30
2014,07,17,08,28,15.40
2014,07,17,08,29,15.50
2014,07,17,08,30,15.60
2014,07,17,08,31,15.60
2014,07,17,08,32,15.70
2014,07,17,08,33,15.70
2014,07,17,08,34,15.70
2014,07,17,08,35,15.70
2014,07,17,08,36,15.70
2014,07,17,08,37,15.70
2014,07,17,08,38,15.70
2014,07,17,08,39,15.70
2014,07,17,08,40,15.70
2014,07,17,08,41,15.70
2014,07,17,08,42,15.70
2014,07,17,08,43,15.80
2014,07,17,08,44,15.80
2014,07,17,08,45,15.90
2014,07,17,08,46,15.90
2014,07,17,08,47,16.00
2014,07,17,08,48,16.10
2014,07,17,08,49,16.10
2014,07,17,08,50,16.10
2014,07,17,08,51,16.20
2014,07,17,08,52,16.20
2014,07,17,08,53,16.30
2014,07,17,08,54,16.30
2014,07,17,08,55,16.30
2014,07,17,08,56,16.40
2014,07,17,08,57,16.50
2014,07,17,08,58,16.60
2014,07,17,08,59,16.60
2014,07,17,09,00,16.70
2014,07,17,09,01,16.70
2014,07,17,09,02,16.70
2014,07,17,09,03,16.70
2014,07,17,09,04,16.70
2014,07,17,09,05,16.70
2014,07,17,09,06,16.70
2014,07,17,09,07,16.70
2014,07,17,09,08,16.80
2014,07,17,09,09,16.80
2014,07,17,09,10,16.80
2014,07,17,09,11,16.90
2014,07,17,09,12,16.90
2014,07,17,09,13,16.90
2014,07,17,09,14,17.00
2014,07,17,09,15,17.00
2014,07,17,09,16,17.10
2014,07,17,09,17,17.10
2014,07,17,09,18,17.10
2014,07,17,09,19,17.10
2014,07,17,09,20,17.20
2014,07,17,09,21,17.30
2014,07,17,09,22,17.30
2014,07,17,09,23,17.40
2014,07,17,09,24,17.40
2014,07,17,09,25,17.50
2014,07,17,09,26,17.60
2014,07,17,09,27,17.60
2014,07,17,09,28,17.70
2014,07,17,09,29,17.70
2014,07,17,09,30,17.80
2014,07,17,09,31,17.80
2014,07,17,09,32,17.80
2014,07,17,09,33,17.80
2014,07,17,09,34,17.80
2014,07,17,09,35,17.90
2014,07,17,09,36,17.90
2014,07,17,09,37,17.90
2014,07,17,09,38,18.00
2014,07,17,09,39,18.00
2014,07,17,09,40,18.00
2014,07,17,09,41,17.90
2014,07,17,09,42,17.90
2014,07,17,09,43,17.80
2014,07,17,09,44,17.80
2014,07,17,09,45,17.80
2014,07,17,09,46,17.80
2014,07,17,09,47,17.90
2014,07,17,09,48,18.00
2014,07,17,09,49,18.00
2014,07,17,09,50,18.10
2014,07,17,09,51,18.20
2014,07,17,09,52,18.20
2014,07,17,09,53,18.30
2014,07,17,09,54,18.30
2014,07,17,09,55,18.30
2014,07,17,09,56,18.30
2014,07,17,09,57,18.20
2014,07,17,09,58,18.30
2014,07,17,09,59,18.30
2014,07,17,10,00,18.20
2014,07,17,10,01,18.20
2014,07,17,10,02,18.20
2014,07,17,10,03,18.20
2014,07,17,10,04,18.20
2014,07,17,10,05,18.20
2014,07,17,10,06,18.10
2014,07,17,10,07,18.10
2014,07,17,10,08,18.10
2014,07,17,10,09,18.10
2014,07,17,10,10,18.20
2014,07,17,10,11,18.30
2014,07,17,10,12,18.40
2014,07,17,10,13,18.40
2014,07,17,10,14,18.50
2014,07,17,10,15,18.60
2014,07,17,10,16,18.60
2014,07,17,10,17,18.70
2014,07,17,10,18,18.80
2014,07,17,10,19,18.80
2014,07,17,10,20,18.90
2014,07,17,10,21,19.00
2014,07,17,10,22,19.00
2014,07,17,10,23,19.00
2014,07,17,10,24,18.90
2014,07,17,10,25,18.90
2014,07,17,10,26,18.80
2014,07,17,10,27,18.80
2014,07,17,10,28,18.80
2014,07,17,10,29,18.80
2014,07,17,10,30,18.80
2014,07,17,10,31,18.80
2014,07,17,10,32,18.80
2014,07,17,10,33,18.80
2014,07,17,10,34,18.80
2014,07,17,10,35,18.90
2014,07,17,10,36,18.90
2014,07,17,10,37,19.00
2014,07,17,10,38,19.10
2014,07,17,10,39,19.10
2014,07,17,10,40,19.30
2014,07,17,10,41,19.40
2014,07,17,10,42,19.50
2014,07,17,10,43,19.40
2014,07,17,10,44,19.40
2014,07,17,10,45,19.30
2014,07,17,10,46,19.30
2014,07,17,10,47,19.40
2014,07,17,10,48,19.40
2014,07,17,10,49,19.50
2014,07,17,10,50,19.50
2014,07,17,10,51,19.50
2014,07,17,10,52,19.60
2014,07,17,10,53,19.60
2014,07,17,10,54,19.60
2014,07,17,10,55,19.70
2014,07,17,10,56,19.70
2014,07,17,10,57,19.80
2014,07,17,10,58,19.80
2014,07,17,10,59,19.80
2014,07,17,11,00,19.80
2014,07,17,11,01,19.80
2014,07,17,11,02,19.80
2014,07,17,11,03,19.80
2014,07,17,11,04,19.80
2014,07,17,11,05,19.70
2014,07,17,11,06,19.70
2014,07,17,11,07,19.70
2014,07,17,11,08,19.70
2014,07,17,11,09,19.80
2014,07,17,11,10,19.80
2014,07,17,11,11,19.90
2014,07,17,11,12,20.00
2014,07,17,11,13,20.10
2014,07,17,11,14,20.20
2014,07,17,11,15,20.20
2014,07,17,11,16,20.20
2014,07,17,11,17,20.30
2014,07,17,11,18,20.30
2014,07,17,11,19,20.30
2014,07,17,11,20,20.30
2014,07,17,11,21,20.20
2014,07,17,11,22,20.20
2014,07,17,11,23,20.20
2014,07,17,11,24,20.30
2014,07,17,11,25,20.30
2014,07,17,11,26,20.40
2014,07,17,11,27,20.50
2014,07,17,11,28,20.60
2014,07,17,11,29,20.60
2014,07,17,11,30,20.60
2014,07,17,11,31,20.60
2014,07,17,11,32,20.60
2014,07,17,11,33,20.50
2014,07,17,11,34,20.50
2014,07,17,11,35,20.40
2014,07,17,11,36,20.30
2014,07,17,11,37,20.20
2014,07,17,11,38,20.20
2014,07,17,11,39,20.10
2014,07,17,11,40,20.10
2014,07,17,11,41,20.10
2014,07,17,11,42,20.20
2014,07,17,11,43,20.20
2014,07,17,11,44,20.20
2014,07,17,11,45,20.20
2014,07,17,11,46,20.20
2014,07,17,11,47,20.20
2014,07,17,11,48,20.20
2014,07,17,11,49,20.20
2014,07,17,11,50,20.20
2014,07,17,11,51,20.30
2014,07,17,11,52,20.30
2014,07,17,11,53,20.20
2014,07,17,11,54,20.10
2014,07,17,11,55,20.10
2014,07,17,11,56,20.10
2014,07,17,11,57,20.10
2014,07,17,11,58,20.20
2014,07,17,11,59,20.20
2014,07,17,12,00,20.30
2014,07,17,12,01,20.30
2014,07,17,12,02,20.40
2014,07,17,12,03,20.50
2014,07,17,12,04,20.50
2014,07,17,12,05,20.60
2014,07,17,12,06,20.60
2014,07,17,12,07,20.60
2014,07,17,12,08,20.60
2014,07,17,12,09,20.60
2014,07,17,12,10,20.60
2014,07,17,12,11,20.60
2014,07,17,12,12,20.60
2014,07,17,12,13,20.60
2014,07,17,12,14,20.60
2014,07,17,12,15,20.50
2014,07,17,12,16,20.40
2014,07,17,12,17,20.40
2014,07,17,12,18,20.40
2014,07,17,12,19,20.40
2014,07,17,12,20,20.40
2014,07,17,12,21,20.40
2014,07,17,12,22,20.40
2014,07,17,12,23,20.40
2014,07,17,12,24,20.40
2014,07,17,12,25,20.40
2014,07,17,12,26,20.40
2014,07,17,12,27,20.50
2014,07,17,12,28,20.50
2014,07,17,12,29,20.60
2014,07,17,12,30,20.60
2014,07,17,12,31,20.60
2014,07,17,12,32,20.60
2014,07,17,12,33,20.70
2014,07,17,12,34,20.70
2014,07,17,12,35,20.80
2014,07,17,12,36,20.90
2014,07,17,12,37,21.00
2014,07,17,12,38,21.10
2014,07,17,12,39,21.10
2014,07,17,12,40,21.10
2014,07,17,12,41,21.20
2014,07,17,12,42,21.20
2014,07,17,12,43,21.20
2014,07,17,12,44,21.20
2014,07,17,12,45,21.20
2014,07,17,12,46,21.20
2014,07,17,12,47,21.20
2014,07,17,12,48,21.20
2014,07,17,12,49,21.10
2014,07,17,12,50,21.10
2014,07,17,12,51,21.10
2014,07,17,12,52,21.10
2014,07,17,12,53,21.10
2014,07,17,12,54,21.10
2014,07,17,12,55,21.10
2014,07,17,12,56,21.10
2014,07,17,12,57,21.10
2014,07,17,12,58,21.10
2014,07,17,12,59,21.20
2014,07,17,13,00,21.20
2014,07,17,13,01,21.30
2014,07,17,13,02,21.40
2014,07,17,13,03,21.50
2014,07,17,13,04,21.50
2014,07,17,13,05,21.60
2014,07,17,13,06,21.70
2014,07,17,13,07,21.70
2014,07,17,13,08,21.70
2014,07,17,13,09,21.70
2014,07,17,13,10,21.70
2014,07,17,13,11,21.60
2014,07,17,13,12,21.60
2014,07,17,13,13,21.60
2014,07,17,13,14,21.60
2014,07,17,13,15,21.50
2014,07,17,13,16,21.50
2014,07,17,13,17,21.50
2014,07,17,13,18,21.50
2014,07,17,13,19,21.50
2014,07,17,13,20,21.50
2014,07,17,13,21,21.50
2014,07,17,13,22,21.50
2014,07,17,13,23,21.60
2014,07,17,13,24,21.70
2014,07,17,13,25,21.80
2014,07,17,13,26,21.90
2014,07,17,13,27,21.90
2014,07,17,13,28,21.80
2014,07,17,13,29,21.80
2014,07,17,13,30,21.80
2014,07,17,13,31,21.80
2014,07,17,13,32,21.90
2014,07,17,13,33,22.00
2014,07,17,13,34,22.10
2014,07,17,13,35,22.10
2014,07,17,13,36,22.20
2014,07,17,13,37,22.20
2014,07,17,13,38,22.20
2014,07,17,13,39,22.20
2014,07,17,13,40,22.30
2014,07,17,13,41,22.40
2014,07,17,13,42,22.50
2014,07,17,13,43,22.60
2014,07,17,13,44,22.60
2014,07,17,13,45,22.70
2014,07,17,13,46,22.70
2014,07,17,13,47,22.70
2014,07,17,13,48,22.70
2014,07,17,13,49,22.70
2014,07,17,13,50,22.70
2014,07,17,13,51,22.80
2014,07,17,13,52,22.80
2014,07,17,13,53,22.70
2014,07,17,13,54,22.60
2014,07,17,13,55,22.50
2014,07,17,13,56,22.50
2014,07,17,13,57,22.40
2014,07,17,13,58,22.30
2014,07,17,13,59,22.30
2014,07,17,14,00,22.30
2014,07,17,14,01,22.30
2014,07,17,14,02,22.30
2014,07,17,14,03,22.30
2014,07,17,14,04,22.30
2014,07,17,14,05,22.30
2014,07,17,14,06,22.30
2014,07,17,14,07,22.40
2014,07,17,14,08,22.50
2014,07,17,14,09,22.50
2014,07,17,14,10,22.50
2014,07,17,14,11,22.50
2014,07,17,14,12,22.50
2014,07,17,14,13,22.40
2014,07,17,14,14,22.30
2014,07,17,14,15,22.20
2014,07,17,14,16,22.20
2014,07,17,14,17,22.30
2014,07,17,14,18,22.30
2014,07,17,14,19,22.30
2014,07,17,14,20,22.30
2014,07,17,14,21,22.30
2014,07,17,14,22,22.30
2014,07,17,14,23,22.30
2014,07,17,14,24,22.30
2014,07,17,14,25,22.20
2014,07,17,14,26,22.30
2014,07,17,14,27,22.30
2014,07,17,14,28,22.30
2014,07,17,14,29,22.30
2014,07,17,14,30,22.40
2014,07,17,14,31,22.50
2014,07,17,14,32,22.60
2014,07,17,14,33,22.70
2014,07,17,14,34,22.70
2014,07,17,14,35,22.80
2014,07,17,14,36,22.80
2014,07,17,14,37,22.80
2014,07,17,14,38,22.80
2014,07,17,14,39,22.70
2014,07,17,14,40,22.70
2014,07,17,14,41,22.60
2014,07,17,14,42,22.60
2014,07,17,14,43,22.60
2014,07,17,14,44,22.60
2014,07,17,14,45,22.70
2014,07,17,14,46,22.80
2014,07,17,14,47,22.90
2014,07,17,14,48,23.10
2014,07,17,14,49,23.20
2014,07,17,14,50,23.20
2014,07,17,14,51,23.30
2014,07,17,14,52,23.30
2014,07,17,14,53,23.30
2014,07,17,14,54,23.30
2014,07,17,14,55,23.30
2014,07,17,14,56,23.40
2014,07,17,14,57,23.50
2014,07,17,14,58,23.50
2014,07,17,14,59,23.60
2014,07,17,15,00,23.70
2014,07,17,15,01,23.70
2014,07,17,15,02,23.60
2014,07,17,15,03,23.70
2014,07,17,15,04,23.70
2014,07,17,15,05,23.70
2014,07,17,15,06,23.70
2014,07,17,15,07,23.70
2014,07,17,15,08,23.70
2014,07,17,15,09,23.70
2014,07,17,15,10,23.70
2014,07,17,15,11,23.70
2014,07,17,15,12,23.70
2014,07,17,15,13,23.70
2014,07,17,15,14,23.70
2014,07,17,15,15,23.60
2014,07,17,15,16,23.50
2014,07,17,15,17,23.50
2014,07,17,15,18,23.60
2014,07,17,15,19,23.70
2014,07,17,15,20,23.70
2014,07,17,15,21,23.80
2014,07,17,15,22,23.90
2014,07,17,15,23,24.00
2014,07,17,15,24,24.00
2014,07,17,15,25,23.90
2014,07,17,15,26,23.90
2014,07,17,15,27,23.90
2014,07,17,15,28,23.90
2014,07,17,15,29,23.90
2014,07,17,15,30,23.80
2014,07,17,15,31,23.80
2014,07,17,15,32,23.80
2014,07,17,15,33,23.80
2014,07,17,15,34,23.70
2014,07,17,15,35,23.80
2014,07,17,15,36,23.80
2014,07,17,15,37,23.80
2014,07,17,15,38,23.90
2014,07,17,15,39,24.00
2014,07,17,15,40,24.00
2014,07,17,15,41,24.10
2014,07,17,15,42,24.20
2014,07,17,15,43,24.20
2014,07,17,15,44,24.30
2014,07,17,15,45,24.30
2014,07,17,15,46,24.30
2014,07,17,15,47,24.40
2014,07,17,15,48,24.50
2014,07,17,15,49,24.50
2014,07,17,15,50,24.60
2014,07,17,15,51,24.60
2014,07,17,15,52,24.60
2014,07,17,15,53,24.60
2014,07,17,15,54,24.60
2014,07,17,15,55,24.60
2014,07,17,15,56,24.60
2014,07,17,15,57,24.50
2014,07,17,15,58,24.50
2014,07,17,15,59,24.40
2014,07,17,16,00,24.40
2014,07,17,16,01,24.30
2014,07,17,16,02,24.10
2014,07,17,16,03,24.00
2014,07,17,16,04,23.80
2014,07,17,16,05,23.70
2014,07,17,16,06,23.70
2014,07,17,16,07,23.50
2014,07,17,16,08,23.40
2014,07,17,16,09,23.40
2014,07,17,16,10,23.40
2014,07,17,16,11,23.40
2014,07,17,16,12,23.30
2014,07,17,16,13,23.30
2014,07,17,16,14,23.20
2014,07,17,16,15,23.20
2014,07,17,16,16,23.10
2014,07,17,16,17,23.10
2014,07,17,16,18,23.10
2014,07,17,16,19,23.00
2014,07,17,16,20,22.80
2014,07,17,16,21,22.80
2014,07,17,16,22,22.70
2014,07,17,16,23,22.70
2014,07,17,16,24,22.70
2014,07,17,16,25,22.80
2014,07,17,16,26,22.80
2014,07,17,16,27,22.80
2014,07,17,16,28,22.80
2014,07,17,16,29,22.80
2014,07,17,16,30,22.80
2014,07,17,16,31,22.70
2014,07,17,16,32,22.80
2014,07,17,16,33,22.80
2014,07,17,16,34,22.80
2014,07,17,16,35,22.80
2014,07,17,16,36,22.70
2014,07,17,16,37,22.60
2014,07,17,16,38,22.50
2014,07,17,16,39,22.50
2014,07,17,16,40,22.40
2014,07,17,16,41,22.40
2014,07,17,16,42,22.50
2014,07,17,16,43,22.50
2014,07,17,16,44,22.60
2014,07,17,16,45,22.80
2014,07,17,16,46,22.90
2014,07,17,16,47,23.10
2014,07,17,16,48,23.30
2014,07,17,16,49,23.40
2014,07,17,16,50,23.60
2014,07,17,16,51,23.70
2014,07,17,16,52,23.60
2014,07,17,16,53,23.60
2014,07,17,16,54,23.50
2014,07,17,16,55,23.50
2014,07,17,16,56,23.40
2014,07,17,16,57,23.30
2014,07,17,16,58,23.20
2014,07,17,16,59,23.20
2014,07,17,17,00,23.20
2014,07,17,17,01,23.30
2014,07,17,17,02,23.30
2014,07,17,17,03,23.40
2014,07,17,17,04,23.50
2014,07,17,17,05,23.50
2014,07,17,17,06,23.60
2014,07,17,17,07,23.50
2014,07,17,17,08,23.40
2014,07,17,17,09,23.30
2014,07,17,17,10,23.30
2014,07,17,17,11,23.20
2014,07,17,17,12,23.20
2014,07,17,17,13,23.30
2014,07,17,17,14,23.30
2014,07,17,17,15,23.30
2014,07,17,17,16,23.30
2014,07,17,17,17,23.40
2014,07,17,17,18,23.40
2014,07,17,17,19,23.40